1998-067TZ

Last updated on Sat Aug 13 2022 00:02:07 GMT+0000 (Coordinated Universal Time)

1 53321U 98067TZ 22224.46075333 .00036070 00000+0 60535-3 0 9994 2 53321 51.6420 57.7204 0003216 116.7497 243.3822 15.51441141 3448
UTC large
Height (km)
Speed (km/s)
/
Latitude / Longitude
Inclination (degrees)
Orbital Period (minutes)
Azimuth
Elevation
Range (km)
Doppler Factor

Next 0 passes for location: London (51.5072 / 0.1276)

Sorry there are no passes over London.